Regional Weather Roundup
Issued by NWS San Diego, CA

Home | Current Version | Previous Version | Text Only | Print | Product List | Glossary On
Versions: 1 2 3 4 5 6 7 8 9 10 11 12 13 14 15 16 17 18 19 20 21 22 23 24 25 26 27
000
ASUS46 KSGX 290811
RWRSGX

SAN DIEGO HOURLY WEATHER ROUNDUP
NATIONAL WEATHER SERVICE SAN DIEGO CA
100 AM PDT FRI APR 29 2016

NOTE: "FAIR" INDICATES FEW OR NO CLOUDS BELOW 12,000 FEET WITH NO
SIGNIFICANT WEATHER AND/OR OBSTRUCTIONS TO VISIBILITY.

CAZ042-043-060-061-PZZ750-775-290900-

GREATER SAN DIEGO AREA

CITY           SKY/WX    TMP DP  RH WIND       PRES   REMARKS
LINDBERGH FLD  MOCLDY    61  49  64 S6        30.01R
POINT LOMA       N/A     58  55  89 S6          N/A
NATIONAL CITY    N/A     60  52  75 SE3       30.01R
CHULA VISTA      N/A     58  51  78 SW1       29.93R
IMPERIAL BEACH MOCLDY    57  49  74 CALM      30.01S
BROWN FIELD    CLOUDY    55  46  71 S6        30.00S
MIRAMAR MCAS   MOCLDY    57  47  69 E5        29.99S
MONTGOMERY FLD CLOUDY    58  47  66 SE6       30.00R

$$

NORTH SAN DIEGO COUNTY

CITY           SKY/WX    TMP DP  RH WIND       PRES   REMARKS
CAMP PENDLETON CLOUDY    54  49  83 CALM      29.99R
OCEANSIDE AP   MOCLDY    54  46  74 CALM      29.99R
OCEANSIDE HBR    N/A     59  52  77 CALM      30.02R
VISTA            N/A     55  48  78 CALM      29.98R
CARLSBAD       MOCLDY    57  47  69 E3        29.99R
DEL MAR          N/A     56  51  83 CALM      30.03R
LA JOLLA SCRIP   N/A     57  52  82 E2        30.00R
FALLBROOK        N/A     55  52  88 CALM      29.97S
SAN MARCOS       N/A     55  45  68 CALM      29.98R
POWAY            N/A     53  48  82 CALM      30.02R

$$

EAST SAN DIEGO COUNTY

CITY           SKY/WX    TMP DP  RH WIND       PRES   REMARKS
RAMONA         MOCLDY    49  45  86 S6        29.99R
SANTEE LAKES     N/A     52  48  84 CALM      30.00R
LA MESA          N/A     55  47  76 CALM      29.94R
JAMUL            N/A     52  48  84 CALM      30.01R
DESCANSO N       N/A     45  43  94 CALM      29.93R
MT. LAGUNA OBS   N/A     36  36 100 W3        29.56
CAMPO            N/A     47  45  93 SW7       29.95R

$$

ORANGE COUNTY AND THE LOS ANGELES BASIN

CITY           SKY/WX    TMP DP  RH WIND       PRES   REMARKS
JOHN WAYNE AP  CLEAR     57  49  74 SE6       29.98R
LAKE FOREST FR   N/A     51  44  75 E2        29.89R
HUNTINGTON BCH   N/A     55  52  88 CALM      29.99S
LOS ALAMITOS   FAIR      57  51  79 E5        29.97R
FULLERTON      CLEAR     59  50  72 SE5       29.97R
LONG BEACH     CLOUDY    58  53  84 E6        29.97R
L.A. AP        PTCLDY    58  51  78 E8        29.97S
L.A. DOWNTOWN  PTCLDY    57  50  77 CALM      29.97R

$$

THE INLAND EMPIRE

CITY           SKY/WX    TMP DP  RH WIND       PRES   REMARKS
CORONA         CLEAR     49  45  86 CALM      29.98R
CHINO          CLEAR     53  47  79 W5        29.99R
ONTARIO        PTCLDY    54  45  71 W3        29.98R
RIVERSIDE AP   CLEAR     55  44  66 CALM      29.98R
MORENO VALLEY    N/A     52  49  89 S3        28.09S
MARCH ARB      CLEAR     50  48  95 SE6       29.98R
HORSETHIEF CYN   N/A     48  39  71 W3        30.02R
PERRIS           N/A     50  49  94 S6          N/A
HEMET EAST       N/A     50  42  73 SE2       29.68S
FRENCH VALLEY  CLOUDY    52  46  82 S5        29.99S
TEMECULA         N/A     54  50  86 CALM      29.95S

$$

SAN BERNARDINO AND RIVERSIDE COUNTY MOUNTAINS

CITY           SKY/WX    TMP DP  RH WIND       PRES   REMARKS
BIG BEAR AP    MOCLDY    32  28  86 CALM      30.01S
ANGELUS OAKS     N/A     35  32  88 CALM      29.97R
PINE COVE        N/A     36  36 100 N3        30.03R

$$

SOUTHERN DESERT INCLUDING THE COACHELLA VALLEY

CITY           SKY/WX    TMP DP  RH WIND       PRES   REMARKS
PALM SPRINGS   CLEAR     65  41  41 NW14      29.84R
THOUSAND PALMS   N/A     63  43  49 NW22      29.82R
PALM DESERT      N/A     63  45  52 CALM      29.31S
THERMAL        CLEAR     66  42  41 NW20G29   29.80R
BLYTHE         CLEAR     66  36  32 W10       29.80R
IMPERIAL AP    CLEAR     62  44  51 W12       29.83R
EL CENTRO NAS  CLEAR    N/A N/A N/A W16       29.85R
YUMA AZ        CLEAR     62  42  47 W9        29.83R
MEXICALI       CLEAR     63  41  45 W9        29.84R

$$

UPPER DESERT

CITY           SKY/WX    TMP DP  RH WIND       PRES   REMARKS
VICTORVILLE AP CLEAR     52  37  58 CALM      29.94R
HESPERIA         N/A     47  41  78 W3        30.06R
PALMDALE       CLEAR     53  38  56 W10       29.95R
LANCASTER      CLEAR     56  39  53 W15       29.94R
EDWARDS AFB    CLEAR     56  37  48 W10       29.91R
DAGGETT        CLOUDY    61  35  37 W17       29.90R
29 PALMS N     PTCLDY    59  34  39 NW16G23   29.94R
NEEDLES        CLOUDY    63  50  62 CALM      29.82R

$$

REGIONAL REPORTS

CITY           SKY/WX    TMP DP  RH WIND       PRES   REMARKS
SANTA BARBARA  CLEAR     54  46  74 S3        29.94R
SANDBERG       CLEAR     50  39  66 N20G28    30.01S
LAS VEGAS NV   MOCLDY    56  50  80 SW5       29.81R
PHOENIX AZ     PTCLDY    65  37  35 SW7       29.78S
TIJUANA        MOCLDY    55  43  62 CALM      30.02R
ENSENADA NW      N/A     58  32  38 CALM      29.98S

$$

OFFSHORE ISLANDS

CITY           SKY/WX    TMP DP  RH WIND       PRES   REMARKS
CATALINA ARPT  MOCLDY    50  49  96 E8        29.98R
SAN NICOLAS IS PTCLDY   N/A N/A N/A NW28      29.97F

$$

MARINE AND OFFSHORE BUOY REPORTS

STATION/POSITION SKY/WX   TEMP    WIND        PRES    SWELL
                          AIR SEA DIR/SP/G            HT/PER/DIR
                          (F)     (DEG/KT/KT) (MB)    (FT/S/D)
TANNER BANKS               56 60  320/ 19/ 25 1015.9R  11/330/17
S CLEMENTE BASIN           57 61  280/ 12/ 14 1015.4R   7/280/10
SAN NICOLAS IS.               57                N/A     8/310/17
SO. S. ROSA ISLA           54 56  310/ 25/ 31 1014.7R  11/300/16
W. S. BARBARA CH           53 52  320/ 21/ 27 1014.7S   8/310/16
M. S. BARBARA CH           55     280/ 16/ 19 1014.0S   3/260/10
S. MONICA BASIN            56 58  350/ 12/ 14 1014.8R   5/270/ 8
OCEANSIDE OFFSHR              64                N/A     2/270/11
TORREY PINES OTR              64                N/A     2/270/11
LA JOLLA 1                 59 65  130/  3/  4 1015.4R
SAN DIEGO BAY                 68              1015.8R
POINT LOMA SOUTH              63                N/A     3/290/11

$$





USA.gov is the U.S. government's official web portal to all federal, state and local government web resources and services.